Terminal Aerodrome Forecast
Issued by NWS Houston/Galveston TX

Home | Current Version | Previous Version | Text Only | Print | Product List | Glossary On
Versions: 1 2 3 4 5 6 7 8 9 10 11 12 13 14 15 16 17 18 19 20 21 22 23 24 25 26 27 28 29 30 31 32 33 34 35 36 37 38 39 40 41 42 43 44 45 46 47 48 49 50
864
FTUS44 KHGX 012013 AAA
TAFHOU
TAF AMD
KHOU 012013Z 0120/0218 35013G23KT P6SM FEW045 OVC250
     FM020100 36013KT P6SM SCT250
     FM021500 04015KT P6SM FEW250=

USA.gov is the U.S. government's official web portal to all federal, state and local government web resources and services.